Other Public Products
Issued by NWS Grand Forks, ND

Home | Current Version | Previous Version | Graphics & Text | Print | Product List | Glossary On
Versions: 1 2 3 4 5 6 7 8 9 10 11 12 13 14 15 16 17 18 19 20 21 22 23 24 25 26 27 28 29 30 31 32 33 34 35 36 37 38 39 40 41 42 43 44 45 46 47 48 49 50
000
FPUS83 KFGF 272210
OPUFGF
PRAIRIE TO PINES WEATHER ROUNDUP
NATIONAL WEATHER SERVICE EASTERN NORTH DAKOTA/GRAND FORKS ND
500 PM CDT SUN MAY 27 2018

 **SATELLITE DATA USED TO AUGMENT SKY COVER AT AUTOMATED STATIONS**
 *****  WEATHER ACROSS EASTERN NORTH DAKOTA  *****

CITY           SKY/WX    TMP DP  RH WIND       PRES   REMARKS
GRAND FORKS    PTSUNNY   83  60  45 E5        29.81S
GRND FORKS AFB FAIR      82  60  46 E6        29.83R
GRND FORKS NWS   N/A     83  62  48 NE2       29.79S
BUXTON           N/A     83  63  49 NE3         N/A
DEVILS LAKE    FAIR      81  59  47 SW7       29.86S
FARGO          FAIR      80  67  64 NE15      29.78F
WAHPETON ARPT  FAIR      91  54  27 S13       29.75F
$$

 *****  WEATHER ACROSS CENTRAL AND WESTERN NORTH DAKOTA  *****

CITY           SKY/WX    TMP DP  RH WIND       PRES   REMARKS
JAMESTOWN      FAIR      78  65  63 NE14      29.82S
BISMARCK       FAIR      81  62  52 N12G21    29.86R
MINOT          PTSUNNY   85  59  41 N15       29.88R
MINOT AFB      FAIR      83  58  42 N16G22    29.87S
GARRISON         N/A     80  57  45 NE14G23   29.88R
WILLISTON      FAIR      81  59  47 N13       29.94S
DICKINSON      FAIR      80  57  45 NE15      29.91S
HETTINGER      PTSUNNY   81  56  42 N18G25    29.92S
$$

 *****  OTHER OBSERVATIONS NORTHEAST NORTH DAKOTA  *****

CITY           SKY/WX    TMP DP  RH WIND       PRES   REMARKS
WALHALLA       FAIR      82  63  51 N10       29.84R
LANGDON        FAIR      82  61  47 N9        29.88R
CAVALIER         N/A     82  61  47 N8        29.83R
GRAFTON        FAIR      82  59  44 CALM      29.84R
CANDO          FAIR      82  57  42 NE5G12    29.89R
FORT TOTTEN      N/A     83  60  45 CALM      29.95S
ROLLA          FAIR      81  55  41 N14       29.90R
RUGBY          NOT AVBL
 ***** THE ABOVE OBSERVATIONS ARE NON NWS ARE NOT QUALITY
        CONTROLLED AND MAY MIS-REPORT RAIN FOR SNOW...
$$

 *****  OTHER OBSERVATIONS SOUTHEAST NORTH DAKOTA *****

CITY           SKY/WX    TMP DP  RH WIND       PRES   REMARKS
COOPERSTOWN    FAIR      79  63  57 NE10      29.85S
VALLEY CITY    FAIR      77  70  78 NE15G22   29.83S
OAKES            N/A     88  66  48 E21       29.73S HX  90
GWINNER          N/A     86  68  54 E12       29.74F
SHEYENNE NWR     N/A     86  64  47 NE12      29.95S
BUFFALO          N/A     76  61  59 W17         N/A
WYNDMERE       NOT AVBL
 ***** THE ABOVE OBSERVATIONS ARE NON NWS ARE NOT QUALITY
       CONTROLLED AND MAY MIS-REPORT RAIN FOR SNOW...
$$

  *****  WEATHER ACROSS NORTHERN MINNESOTA  *****

CITY           SKY/WX    TMP DP  RH WIND       PRES   REMARKS
FLAG ISLAND    FAIR      73  63  68 CALM      29.84F
WARROAD        FAIR      73  66  78 E7        29.85F
ROSEAU         FAIR      81  61  50 NE8       29.84F
HALLOCK        FAIR      82  57  42 N3        29.81R
THF RVR FALLS  FAIR      82  58  43 NE8       29.84S
HALSTAD          N/A     81  64  57 NE12        N/A
FOSSTON        FAIR      82  61  47 NE8       29.84S
BAUDETTE         N/A    N/A N/A N/A MISG      29.84F
WASKISH        FAIR      82  61  47 CALM      29.84S
CROOKSTON      FAIR      82  59  44 NE7       29.82S
$$
  *****  WEATHER ACROSS CENTRAL AND WEST MINNESOTA  *****

CITY           SKY/WX    TMP DP  RH WIND       PRES   REMARKS
BEMIDJI        FAIR      80  60  51 N8        29.85F
PARK RAPIDS    FAIR      80  62  54 N9        29.82R
WADENA         FAIR      86  59  39 S15G25    29.79F
DETROIT LAKES  FAIR      82  59  44 N5        29.82S
MOORHEAD       FAIR      81  64  57 NE16      29.79F
FERGUS FALLS   FAIR      90  57  33 S16       29.71F
ELBOW LAKE     FAIR      89  60  37 SE16      29.77F
MORRIS MN      FAIR      90  63  40 SE17      29.75F HX  90
STAPLES        FAIR      86  55  35 S12       29.80F
WHEATON        NOT AVBL
$$
  *****  WEATHER ELSEWHERE ACROSS MINNESOTA  *****

CITY           SKY/WX    TMP DP  RH WIND       PRES   REMARKS
DULUTH         FAIR      86  58  38 N7        29.83S
INTRNTL FALLS  FAIR      79  60  52 NE5       29.84S
ELY            FAIR      84  48  28 SW5       29.84F
CLOQUET        FAIR      86  48  26 CALM      29.83R
BRAINERD       FAIR      83  62  49 S12       29.81F
HIBBING        FAIR      83  58  42 NW6       29.83F
ALEXANDRIA     FAIR      92  57  30 S18       29.81F HX  90
SAINT CLOUD    FAIR      90  53  28 S14       29.81F
MINNEAPOLIS    PTSUNNY   90  62  39 SE9       29.83F HX  90
$$

  *****  WEATHER ACROSS SOUTH DAKOTA  *****

CITY           SKY/WX    TMP DP  RH WIND       PRES   REMARKS
SIOUX FALLS    PTSUNNY   93  59  31 SW8       29.78F HX  92
BROOKINGS      FAIR      96  62  32 SW13      29.78F HX  97
WATERTOWN      FAIR      94  56  27 S23G36    29.76F HX  92
HURON          FAIR      97  52  21 S22G37    29.71F HX  94
SISSETON         N/A     92  68  45 SE12      29.71F HX  96
ABERDEEN       FAIR     100  61  27 SW20G32   29.69F HX 101
MITCHELL       FAIR      95  56  26 S13G30    29.75S HX  93
PIERRE         FAIR      88  68  51 NW10      29.73S HX  91
MOBRIDGE       FAIR      87  65  47 N20G32    29.75R
RAPID CITY     FAIR      79  58  48 N15       29.88S
$$

  *****  SOME WEATHER IN NEARBY STATES *****

CITY           SKY/WX    TMP DP  RH WIND       PRES   REMARKS
GLASGOW MT     FAIR      85  47  26 NE14G20   29.97F
GREAT FALLS MT FAIR      81  48  31 NE7       30.04S
CHEYENNE WY    FAIR      71  45  39 SE14G21   29.91F THUNDER
SCOTTSBLUFF NE FAIR      85  57  38 SE14      29.83F
OMAHA NE       PTSUNNY  100  57  23 S14       29.80F HX  99
DES MOINES IA  PTSUNNY   97  64  33 VRB5      29.81F HX  99
DAVENPORT IA     N/A     81  68  64 E9        29.87S
CHICAGO IL     FAIR      95  63  34 E9        29.84S HX  96
EAU CLAIRE WI  FAIR      92  54  27 S8        29.82S HX  90
LA CROSSE WI   FAIR      95  58  28 NE3       29.82F HX  94
$$

  *****  SOME NATIONAL WEATHER *****

CITY           SKY/WX    TMP DP  RH WIND       PRES   REMARKS
LA GUARDIA NY  CLOUDY    61  54  77 NE21      30.05R
RALEIGH NC     PTSUNNY   83  69  62 SW9       29.96S
ATLANTA GA     PTSUNNY   81  65  58 E12       29.90F
NEW ORLEANS LA PTSUNNY   89  70  53 NE8       29.77F HX  94
OKLAHOMA CITY  FAIR      88  66  48 SE14G22   29.84F HX  90
ALBUQUERQUE NM FAIR      86  12   6 S10G23    29.91F
SALT LAKE CITY TSTM      57  54  88 W12       30.00R FOG
LOS ANGELES CA FAIR      68  53  58 W15       29.92F
BOISE ID       FAIR      81  48  31 NW17G28   29.92R
SEATTLE WA     FAIR      72  45  37 CALM      30.20F
$$

*** WEATHER ACROSS MANITOBA...SASKATCHEWAN AND ONTARIO ***
                ***ONTARIO***

CITY           SKY/WX    TMP DP  RH WIND       PRES   REMARKS
GERALDTON      PTSUNNY   75  57  53 W8G20     29.80S
THUNDER BAY    PTSUNNY   68  54  60 NE7       29.80S
SIOUX LOOKOUT  CLOUDY    72  57  60 W6        29.85S
TORONTO        MOSUNNY   70  63  78 SE9       29.89S
BIG TROUT LK   SUNNY     68  52  56 W10       29.71F
PICKLE LAKE    PTSUNNY   68  55  64 NW7       29.81S
DRYDEN         CLOUDY    73  59  60 NW5       29.86F
KENORA         PTSUNNY   75  57  53 VRB2      29.86S
$$
                *** MANITOBA***

CITY           SKY/WX    TMP DP  RH WIND       PRES   REMARKS
BRANDON        PTSUNNY   82  59  44 W16G23    29.86S
DAUPHIN        SUNNY     79  64  61 E9        29.84S
ISLAND LAKE    PTSUNNY   70  59  68 VRB6      29.72F
PILOT MOUND      N/A     79  57  47 NW9         N/A
THE PAS        MOSUNNY   73  41  31 NW16G23   29.84R
THOMPSON       LGT RAIN  72  43  35 N12G21    29.75R
WINNIPEG       PTSUNNY   82  57  42 NW9       29.81F
LYNN LAKE      CLOUDY    59  45  58 NW18G26   29.85R
CHURCHILL      MOSUNNY   43  36  75 NW22G29   29.74R
GILLAM         CLOUDY    61  41  48 NW10G18   29.67R
$$
                ***SASKATCHEWAN***

CITY           SKY/WX    TMP DP  RH WIND       PRES   REMARKS
ESTEVAN        PTSUNNY   81  54  39 N16       29.92S
KINDERSLEY     PTSUNNY   77  36  22 VRB9G25   30.03F
LLOYDMINSTER   PTSUNNY   72  37  28 W16G22    30.03S
PRINCE ALBERT  MOSUNNY   77  37  24 W21G29    29.97R
REGINA         MOSUNNY   79  41  25 NW14      29.99R
YORKTON        SUNNY     77  41  27 NW12G23   29.94S



USA.gov is the U.S. government's official web portal to all federal, state and local government web resources and services.